Location: Newark
(52.2090°N, 4.1550°W)
Time: 09:04:46
(UTC+00:00)

Vanguard 1 Rocket - All Passes

Search period start: 18 September 2019 00:00
Search period end: 28 September 2019 00:00
Orbit: 652 x 4225 km, 34.3° (Epoch: 15 September)

Date Brightness Start Highest point End Pass type
(mag) Time Alt. Az. Time Alt. Az. Time Alt. Az.
18 Sep - 15:22:29 10° SSE 15:26:14 11° SE 15:29:43 10° SE daylight
18 Sep - 17:38:15 10° SSW 17:53:08 25° SSE 18:03:00 10° ESE daylight
18 Sep - 20:05:53 10° SW 20:19:27 31° S 20:27:29 10° SE visible
18 Sep - 22:36:10 10° WSW 22:44:00 21° SSW 22:49:17 10° SSE visible
19 Sep - 16:26:34 10° S 16:40:43 21° SSE 16:51:02 10° ESE daylight
19 Sep - 18:51:55 10° SW 19:07:38 32° S 19:17:08 10° ESE visible
19 Sep - 21:21:47 10° WSW 21:33:10 28° SSW 21:40:06 10° SE visible
19 Sep - 23:54:45 10° SW 23:56:34 11° SW 23:58:12 10° SSW visible
20 Sep - 15:17:06 10° S 15:28:14 16° SE 15:37:20 10° ESE daylight
20 Sep - 17:38:27 10° SSW 17:55:24 30° SSE 18:06:15 10° ESE daylight
20 Sep - 20:07:20 10° WSW 20:21:51 33° S 20:30:19 10° SE visible
20 Sep - 22:38:28 10° WSW 22:46:14 20° SSW 22:51:36 10° S visible
21 Sep - 16:25:58 10° SSW 16:42:50 26° SSE 16:54:40 10° ESE daylight
21 Sep - 18:52:57 10° SW 19:09:58 35° S 19:20:03 10° ESE visible
21 Sep - 21:23:40 10° WSW 21:35:29 28° SSW 21:42:41 10° SSE visible
22 Sep - 15:15:05 10° S 15:30:09 21° SE 15:41:54 10° ESE daylight
22 Sep - 17:39:02 10° SW 17:57:38 34° SSE 18:09:18 10° ESE daylight
22 Sep - 20:08:53 10° WSW 20:24:10 34° SSW 20:33:02 10° SE visible
22 Sep - 22:40:55 10° WSW 22:48:23 18° SW 22:53:41 10° S visible
23 Sep - 14:07:11 10° SSE 14:17:34 14° SE 14:26:41 10° ESE daylight
23 Sep - 16:25:58 10° SSW 16:44:55 31° SSE 16:57:55 10° ESE daylight
23 Sep - 18:54:12 10° WSW 19:12:16 38° S 19:22:52 10° ESE visible
23 Sep - 21:25:37 10° WSW 21:37:41 27° SSW 21:45:08 10° SSE visible
24 Sep - 15:14:13 10° SSW 15:32:02 26° SSE 15:45:37 10° ESE daylight
24 Sep - 17:39:54 10° SW 17:59:48 38° S 18:12:11 10° ESE daylight
24 Sep - 20:10:33 10° WSW 20:26:24 35° SSW 20:35:40 10° SE visible
24 Sep - 22:43:36 10° WSW 22:50:23 16° SW 22:55:25 10° S visible
25 Sep - 14:04:30 10° S 14:19:14 19° SE 14:31:46 10° ESE daylight
25 Sep - 16:26:24 10° SW 16:46:56 35° SSE 17:00:55 10° ESE daylight
25 Sep - 18:55:35 10° WSW 19:14:28 39° S 19:25:34 10° ESE visible
25 Sep - 21:27:42 10° W 21:39:47 25° SSW 21:47:25 10° SSE visible
26 Sep - 12:59:20 10° SSE 13:06:46 12° SE 13:13:49 10° ESE daylight
26 Sep - 15:14:03 10° SSW 15:33:51 30° SSE 15:48:52 10° E daylight
26 Sep - 17:41:01 10° SW 18:01:55 41° S 18:14:57 10° ESE daylight
26 Sep - 20:12:18 10° WSW 20:28:32 34° SSW 20:38:09 10° SE visible
26 Sep - 22:46:43 10° WSW 22:52:16 14° SW 22:56:39 10° SSW visible
27 Sep - 14:03:20 10° S 14:20:51 24° SE 14:35:40 10° E daylight
27 Sep - 16:27:10 10° SW 16:48:55 39° SSE 17:03:45 10° ESE daylight
27 Sep - 18:57:06 10° WSW 19:16:36 40° SSW 19:28:11 10° SE visible
27 Sep - 21:29:53 10° W 21:41:44 23° SW 21:49:29 10° S visible
